Flag for Germany Weather past 2 weeks in Duisburg, North Rhine-Westphalia, Germany

Now
55 °F

Clear.


Feels Like: 53 °F
Forecast: 52 / 62 °F
Wind: 9 mph from Southwest

Location: Duesseldorf

Current Time: Aug 23, 2014 at 12:05:13 AM

Latest Report: Aug 22, 2014 at 11:20 PM


Visibility: 10 mi

Pressure: 29.89 "Hg

Humidity: 88%

Dew point: 52 °F

Location of DuisburgLocation

Historic Weather in Duisburg — Graph

°F

Duisburg temperature yesterday

Maximum temperature yesterday: 66 °F (at 3:50 PM)
Minimum temperature yesterday: 52 °F (at 5:50 AM)
Average temperature yesterday: 58 °F

Past Weeks' High & Low Weather Summary

 TemperatureHumidityPressure
High77 °F (Aug 8, 12:20 PM)94% (Aug 8, 4:50 AM)30.09 "Hg (Aug 8, 4:50 AM)
Low46 °F (Aug 20, 2:50 AM)43% (Aug 11, 3:50 PM)29.56 "Hg (Aug 10, 6:20 PM)
Average61 °F75%29.86 "Hg
* Reported Aug 7 10:20 PM — Aug 22 10:50 PM, Duisburg, Weather by CustomWeather, © 2014

Note: Actual official high and low records may vary slightly from our data, if they occured in-between our weather recording intervals... More about our weather records

Advertising

Duisburg weather history for previous 24 hours

 ConditionsComfort  
Time TempWeatherWind HumidityBarometerVisibility
10:50 PM
Aug 22
55 °FSprinkles. Partly cloudy.9 mph88%29.89 "HgN/A
10:20 PM55 °FSprinkles. Partly cloudy.9 mph94%29.89 "HgN/A
9:50 PM55 °FPassing clouds.9 mph94%29.89 "HgN/A
9:20 PM55 °FPassing clouds.9 mph88%29.89 "HgN/A
8:50 PM55 °FScattered clouds.10 mph88%29.89 "HgN/A
8:20 PM57 °FPartly sunny.9 mph88%29.89 "HgN/A
7:50 PM57 °FBroken clouds.7 mph88%29.89 "HgN/A
7:20 PM57 °FLight rain. Broken clouds.9 mph82%29.89 "HgN/A
6:50 PM57 °FLight rain. Broken clouds.9 mph82%29.89 "HgN/A
6:20 PM59 °FLight rain. Partly sunny.12 mph77%29.86 "HgN/A
5:50 PM63 °FPartly sunny.10 mph64%29.86 "HgN/A
5:20 PM64 °FLight rain. Broken clouds.12 mph56%29.86 "HgN/A
4:50 PM66 °FLight rain. Broken clouds.12 mph49%29.86 "HgN/A
4:20 PM66 °FBroken clouds.14 mph52%29.86 "HgN/A
3:50 PM66 °FBroken clouds.9 mph52%29.86 "HgN/A
3:20 PM64 °FPartly sunny.15 mph56%29.86 "HgN/A
2:50 PM64 °FBroken clouds.14 mph56%29.86 "HgN/A
2:20 PM64 °FBroken clouds.17 mph56%29.86 "HgN/A
1:50 PM64 °FPartly sunny.20 mph56%29.86 "HgN/A
1:20 PM64 °FBroken clouds.20 mph52%29.86 "HgN/A
12:50 PM64 °FBroken clouds.18 mph52%29.86 "HgN/A
12:20 PM64 °FBroken clouds.18 mph52%29.86 "HgN/A
11:50 AM64 °FPartly sunny.16 mph52%29.89 "HgN/A
11:20 AM63 °FBroken clouds.13 mph59%29.89 "HgN/A
10:50 AM61 °FSunny.13 mph59%29.89 "Hg10 mi
10:20 AM61 °FSunny.12 mph63%29.89 "Hg10 mi
9:50 AM59 °FSunny.9 mph68%29.89 "Hg10 mi
9:20 AM57 °FSunny.12 mph72%29.89 "Hg10 mi
8:50 AM57 °FPartly sunny.9 mph77%29.89 "HgN/A
8:20 AM55 °FPartly sunny.9 mph77%29.89 "HgN/A
7:50 AM54 °FSunny.10 mph82%29.89 "Hg10 mi
7:20 AM54 °FClear.13 mph82%29.92 "Hg10 mi
6:50 AM54 °FClear.12 mph82%29.92 "Hg10 mi
6:20 AM52 °FClear.10 mph88%29.92 "Hg10 mi
5:50 AM52 °FClear.7 mph82%29.92 "Hg10 mi
5:20 AM54 °FClear.7 mph82%29.92 "Hg10 mi
4:20 AM55 °FClear.7 mph77%29.92 "Hg10 mi
3:50 AM54 °FClear.7 mph82%29.95 "Hg10 mi
3:20 AM54 °FClear.7 mph82%29.95 "Hg10 mi
2:50 AM54 °FClear.8 mph82%29.95 "Hg10 mi
2:20 AM54 °FClear.8 mph82%29.95 "Hg10 mi
1:50 AM55 °FClear.8 mph77%29.95 "Hg10 mi
1:20 AM55 °FClear.9 mph77%29.95 "Hg10 mi
12:50 AM55 °FClear.8 mph77%29.95 "Hg10 mi
12:20 AM57 °FClear.8 mph72%29.95 "Hg10 mi
Weather by CustomWeather, © 2014

See weather overviewHow to use our weather pages